Preview of NWS' New Version of Forecast
This preview is not operational and should not be used for support decisions.

Regional Weather Roundup (RWR)

Issued by Gray - Portland, ME (GYX)

                            
307 
ASUS41 KGYX 182305
RWRGYX
WEATHER ROUNDUP FOR MAINE AND NEW HAMPSHIRE
NATIONAL WEATHER SERVICE GRAY ME
600 PM EST SUN FEB 18 2018

MEZ002-005-006-010-012-015-018-020-021-024-026-027-029-190000-
MAINE
  
CITY           SKY/WX    TMP DP  RH WIND       PRES   REMARKS
PORTLAND       FAIR      34  22  61 W7        30.36R                  
SANFORD        FAIR      34  20  56 W9        30.37R                  
BAR HARBOR     CLOUDY    33  24  69 CALM      30.34R                  
WISCASSET      FAIR      30  25  81 CALM      30.37R                  
ROCKLAND       FAIR      34  22  61 W3        30.35R                  
FRYEBURG       FAIR      34  19  54 W9        30.35R                  
LEWISTONAUBURN MOCLDY    35  19  52 N7        30.35R                  
AUGUSTA        CLOUDY    33  18  53 NW7       30.35R                  
WATERVILLE     MOCLDY    34  18  52 NW12      30.30R                  
BANGOR         CLOUDY    34  20  56 W5        30.34R                  
GREENVILLE       N/A     26  16  65 W9        30.23R                  
MILLINOCKET    CLOUDY    31  18  58 W6        30.30R                  
HOULTON        FAIR      27  17  66 W6        30.21R                  
PRESQUE ISLE   FAIR      25  16  68 W5        30.22R                  
FRENCHVILLE    FAIR      26  13  57 NW10      30.19R WCI  16          
CARIBOU        FAIR      26   9  48 NW6       30.20R                  
$$

NHZ002-005-008-009-011-012-014-190000-
NEW HAMPSHIRE
  
CITY           SKY/WX    TMP DP  RH WIND       PRES   REMARKS
PORTSMOUTH     PTCLDY    35  20  54 NW8       30.36R                  
ROCHESTER      FAIR      34  21  59 NW5       30.35R                  
NASHUA         FAIR      36  21  54 W5        30.39R                  
MANCHESTER     FAIR      38  20  48 W3        30.37R                  
CONCORD        MOCLDY    36  22  56 NW7       30.36R                  
LACONIA        MOCLDY    33  18  53 CALM      30.36R                  
PLYMOUTH       MOCLDY    32  19  59 CALM      30.36R                  
BERLIN         MOCLDY    31  19  61 VRB3      30.31R                  
WHITEFIELD     CLOUDY    28  21  75 W6        30.32R                  
JAFFREY        FAIR      32  22  66 CALM      30.35R                  
KEENE          MOCLDY    32  23  69 CALM      30.39R                  
LEBANON        CLOUDY    32  24  72 CALM      30.37R                  
MT WASHINGTON  SNOWSHWR   9   9 100 W60         N/A  VSB 0   WCI -21  
$$

VTZ005-007-008-190000-
VERMONT
  
CITY           SKY/WX    TMP DP  RH WIND       PRES   REMARKS
ST JOHNSBURY     N/A     29  24  82 MISG      30.34R                  
MONTPELIER     CLOUDY    30  21  69 W5        30.37R                  
BURLINGTON     MOCLDY    34  22  61 SW5       30.36R                  
$$

MAZ007-012-024-CTZ003-RIZ002-NYZ038-NYZ072-190000-
SOUTHERN NEW ENGLAND AND NY
  
CITY           SKY/WX    TMP DP  RH WIND       PRES   REMARKS
BOSTON         FAIR      41  22  46 W5        30.38R                  
WORCESTER      FAIR      34  20  56 W9        30.36R                  
NANTUCKET      FAIR      35  30  82 N3        30.39R                  
PROVIDENCE     FAIR      40  25  55 W10       30.39R                  
HARTFORD       FAIR      35  22  58 N5        30.42R                  
ALBANY         MOCLDY    33  20  58 W6        30.42R                  
NEW YORK CITY  MOCLDY    43  24  47 NW10      30.43R                  
$$

ANZ081-ANZ082-ANZ150-NHZ014-MEZ023>029-190000-
COASTAL MARINE OBSERVATIONS
  
STATION/POSITION TIME  TEMP    WIND        PRES    WAVE
                       AIR SEA DIR/SP/G            HT/PER
                 (UTC) (F)     (DEG/KT/KT) (MB)    (FT/S)
MOUNT DESERT ROC 2300   37     290/ 15/ 17 1027.3R
MATINICUS ROCK   2200   37     290/ 10/ 11 1025.5R
ISLE OF SHOALS   2200   41     320/  9/ 10 1026.7R
JEFFREYS LEDGE   2236      42                N/A     3/ 7
GEORGES BANK BUO 2150   45 55               989.8   17/ 9
$$

.............KEY..............
   WCI - WIND CHILL
   TC  - TEMPERATURE IN CELSIUS
   VSB - VISIBILITY IN MILES
   HX  - HEAT INDEX
   FAIR- INDICATES FEW OR NO CLOUDS BELOW 12,000 FT, WITH NO 
         SIGNIFICANT WEATHER AND/OR OBSTRUCTIONS TO VISIBILITY.